OneWeb SL0492

operational
NORAD ID: 54114 Int'l Des: 2022-138 Owner: ONEWEBN Country: UK Constellation: oneweb
LEOCIRCULARPOLARONEWEB_TYPE

关于 OneWeb SL0492

正在加载描述...

实时位置

正在加载3D地球...

即将过境

高度历史

Altitude vs Time

uPlot chart will show altitude changes over time

两行轨道根数

1 54114U 22138B 26095.14827912 -.00000014 00000-0 -66933-4 0 9995
2 54114 87.9181 319.5336 0001906 80.1547 279.9801 13.19726664167209
Epoch: Apr 5, 2026 • Age: 8 hours

当前状态

高度 1189.2 km
速度 7.26 km/s
星下点 30.94°N, 130.59°E
发射日期 Oct 22, 2022
运行时间 3.4 years
类型 internet

技术详情

分类 Payload
质量 148.00 kg
干质量 140.00 kg
总质量 148.00 kg
长度 1.30 m
直径 1.00 m
跨度 5.00 m
形状 Trapezoid+2 pan
制造商 ONEWUS
平台类型 ARROW
阶段状态 In Orbit
所有者/国家 ONEWEBN/UK

大型星座

Loading constellations...